This is the latest recevied weather packets stored in our database for station/object AI9F. If no packets are shown the sender has not sent any weather packets the latest 10 day(s).
| Time | Temp. | Humidity | Pressure | Rain* | Wind** | Luminosity | Snow |
|---|---|---|---|---|---|---|---|
| 1777917901 | 23.89° C | 55% | 1006.9 hPa | 0 mm | - | 228 W/m² | - |
| 1777917599 | 23.89° C | 50% | 1006.7 hPa | 0 mm | - | 291 W/m² | - |
| 1777917296 | 23.89° C | 51% | 1006.8 hPa | 0 mm | - | 333 W/m² | - |
| 1777916993 | 23.89° C | 49% | 1007.1 hPa | 0 mm | - | 339 W/m² | - |
| 1777916690 | 24.44° C | 47% | 1006.9 hPa | 0 mm | - | 328 W/m² | - |
| 1777916388 | 24.44° C | 50% | 1007.1 hPa | 0 mm | - | 360 W/m² | - |
| 1777916084 | 24.44° C | 50% | 1007.1 hPa | 0 mm | - | 507 W/m² | - |
| 1777915782 | 24.44° C | 48% | 1007.3 hPa | 0 mm | - | 507 W/m² | - |
| 1777915477 | 24.44° C | 47% | 1007.5 hPa | 0 mm | - | 538 W/m² | - |
| 1777915174 | 24.44° C | 47% | 1007.5 hPa | 0 mm | - | 595 W/m² | - |
| 1777914871 | 23.89° C | 51% | 1007.5 hPa | 0 mm | - | 645 W/m² | - |
| 1777914568 | 23.89° C | 50% | 1007.3 hPa | 0 mm | - | 635 W/m² | - |
| 1777914264 | 23.89° C | 48% | 1007.7 hPa | 0 mm | - | 503 W/m² | - |
| 1777913961 | 23.89° C | 50% | 1007.5 hPa | 0 mm | - | 439 W/m² | - |
| 1777913658 | 23.89° C | 50% | 1007.5 hPa | 0 mm | - | 623 W/m² | - |
| 1777913355 | 24.44° C | 51% | 1008 hPa | 0 mm | - | 548 W/m² | - |
| 1777913051 | 23.89° C | 52% | 1008.1 hPa | 0 mm | - | 508 W/m² | - |
| 1777912747 | 24.44° C | 49% | 1008.1 hPa | 0 mm | - | 634 W/m² | - |
| 1777912443 | 23.89° C | 52% | 1008.1 hPa | 0 mm | - | 649 W/m² | - |
| 1777912139 | 23.33° C | 53% | 1007.9 hPa | 0 mm | - | 650 W/m² | - |
| 1777911835 | 23.33° C | 53% | 1008.2 hPa | 0 mm | - | 571 W/m² | - |
| 1777911533 | 22.78° C | 54% | 1008.4 hPa | 0 mm | - | 599 W/m² | - |
| 1777911229 | 22.78° C | 56% | 1008.4 hPa | 0 mm | - | 411 W/m² | - |
| 1777910926 | 22.22° C | 59% | 1008.3 hPa | 0 mm | - | 346 W/m² | - |
| 1777910623 | 22.22° C | 55% | 1008.5 hPa | 0 mm | - | 576 W/m² | - |
* Rain latest hour (hover to see other rain measurements)
** Current wind speed in m/s (hover to see current wind gust speed)